EW6681 Weather Reports


time (UTC)temp
C
wind
direction
speed
KPH
gust
KPH
rain 1hr
cm
rain 24hr
cm
rain mn
cm
humidity
%
barometer
mb
20260505034550 20 153 0.0 0.0 0.00 0.00 0.00 68 1005.5
20260505033050 20 153 0.0 0.0 0.00 0.00 0.00 67 1005.6
20260505031550 20 153 0.0 0.0 0.00 0.00 0.00 66 1005.6
20260505030049 20 153 0.0 0.0 0.00 0.00 0.00 66 1005.3
20260505024549 20 153 0.0 0.0 0.00 0.00 0.00 66 1005.2
20260505023051 20 153 0.0 0.0 0.00 0.00 0.00 66 1005.0
20260505021546 21 153 0.0 0.0 0.00 0.00 0.00 65 1004.9
20260505020046 21 153 0.0 0.0 0.00 0.00 0.00 64 1004.8
20260505014601 21 153 0.0 0.0 0.00 0.00 0.00 64 1004.7
20260505013043 21 153 0.0 0.0 0.00 0.00 0.00 64 1004.4
20260505011542 21 153 0.0 0.0 0.00 0.00 0.00 64 1004.3
20260505010042 22 153 0.0 1.6 0.00 0.00 0.00 62 1004.3
20260505004543 22 175 0.0 0.0 0.00 0.00 0.00 62 1004.2
20260505003039 22 180 0.0 0.0 0.00 0.00 0.00 61 1004.1
20260505001542 23 180 0.0 3.2 0.00 0.00 0.00 59 1004.1
20260505000046 23 184 0.0 1.6 0.00 0.00 0.00 58 1004.2
20260504234541 23 175 0.0 3.2 0.00 0.00 0.00 57 1004.3
20260504233033 24 170 1.6 6.4 0.00 0.00 0.00 56 1004.4
20260504231536 24 153 1.6 4.8 0.00 0.00 0.00 55 1004.5
20260504230030 25 180 0.0 6.4 0.00 0.00 0.00 53 1004.8
20260504224610 25 184 1.6 6.4 0.00 0.00 0.00 52 1004.8
20260504223059 25 186 0.0 6.4 0.00 0.00 0.00 51 1005.0
20260504221529 25 246 0.0 8.0 0.00 0.00 0.00 50 1004.9
20260504220026 25 234 1.6 9.7 0.00 0.00 0.00 49 1005.1
20260504214523 25 175 1.6 8.0 0.00 0.00 0.00 49 1005.3
20260504213043 25 210 3.2 16.1 0.00 0.00 0.00 49 1005.4
20260504211519 25 236 3.2 19.3 0.00 0.00 0.00 48 1005.5
20260504210020 25 195 0.0 14.5 0.00 0.00 0.00 50 1005.8
20260504204514 26 186 6.4 24.1 0.00 0.00 0.00 49 1005.9
20260504203012 26 218 1.6 9.7 0.00 0.00 0.00 48 1006.1
20260504201517 26 232 0.0 8.0 0.00 0.00 0.00 48 1006.5
20260504200007 25 147 1.6 9.7 0.00 0.00 0.00 48 1006.8
20260504194504 25 241 3.2 17.7 0.00 0.00 0.00 47 1007.0
20260504193002 25 180 0.0 16.1 0.00 0.00 0.00 50 1007.1
20260504191603 25 194 1.6 16.1 0.00 0.00 0.00 48 1007.3
20260504190116 25 196 3.2 16.1 0.00 0.00 0.00 50 1007.4
20260504184606 25 207 3.2 16.1 0.00 0.00 0.00 50 1007.6
20260504183054 25 188 1.6 9.7 0.00 0.00 0.00 50 1007.8
20260504181551 25 230 1.6 16.1 0.00 0.00 0.00 50 1007.8
20260504180050 25 224 1.6 9.7 0.00 0.00 0.00 49 1007.9
20260504174555 25 224 3.2 19.3 0.00 0.00 0.00 50 1008.1
20260504173050 24 180 3.2 11.3 0.00 0.00 0.00 51 1008.3
20260504171541 24 226 1.6 14.5 0.00 0.00 0.00 51 1008.5
20260504090111 16 191 0.0 0.0 0.00 0.00 0.00 70 1009.9
20260504081538 18 202 0.0 0.0 0.00 0.00 0.00 65 1010.0
20260504070127 20 222 0.0 0.0 0.00 0.00 0.00 62 1010.4
20260504050014 21 227 0.0 3.2 0.00 0.00 0.00 60 1010.8
20260504044515 21 219 0.0 1.6 0.00 0.00 0.00 61 1011.0
20260504043005 21 222 0.0 3.2 0.00 0.00 0.00 61 1011.0
20260504041502 21 221 0.0 1.6 0.00 0.00 0.00 61 1011.0
20260504040002 21 224 0.0 1.6 0.00 0.00 0.00 61 1011.1